Regional Weather Roundup
Issued by NWS Newport/Morehead, NC

Current Version | Previous Version | Text Only | Print | Product List | Glossary On
Versions: 1 2 3 4 5 6 7 8 9 10 11 12 13 14 15 16 17 18 19 20 21 22 23 24 25 26 27 28 29 30 31 32 33 34 35 36 37 38 39 40 41 42 43 44 45 46 47 48 49 50
000 ASUS42 KMHX 211713 RWRMHX WEATHER ROUNDUP FOR EASTERN NORTH CAROLINA NATIONAL WEATHER SERVICE NEWPORT/MOREHEAD CITY NC 100 PM EDT FRI JUL 21 2017 NOTE: "FAIR" INDICATES FEW OR NO CLOUDS BELOW 12,000 FEET WITH NO SIGNIFICANT WEATHER AND/OR OBSTRUCTIONS TO VISIBILITY NCZ015>017-031-032-045>047-102-103-211800- NORTH COAST CITY SKY/WX TMP DP RH WIND PRES REMARKS EDENTON MOSUNNY 92 78 64 CALM 29.99S HX 107 ELIZABETH CITY MOSUNNY 91 79 67 S9 29.97F HX 107 KITTY HAWK MOSUNNY 90 74 59 CALM 29.98F HX 100 MANTEO MOSUNNY 88 80 75 S8 30.00S HX 104 $$ NCZ045>047-081-094-103-104-211800- CENTRAL COAST CITY SKY/WX TMP DP RH WIND PRES REMARKS FRISCO MOSUNNY 85 77 77 SW7 30.02F $$ NCZ095-097-098-100-101-211800- SOUTHERN COAST CITY SKY/WX TMP DP RH WIND PRES REMARKS BEAUFORT SUNNY 86 80 82 SW13 30.02F HX 101 CEDAR ISLAND NOT AVBL JACKSONVILLE SUNNY 92 75 57 SW5 30.01F HX 103 PINEY ISLAND MOSUNNY N/A N/A N/A S7 30.00F WILMINGTON SUNNY 91 72 53 W9 30.02F $$ NCZ011>013-027>030-043-044-078>080-089-090>093-098-211800- COASTAL PLAIN CITY SKY/WX TMP DP RH WIND PRES REMARKS AHOSKIE N/A 88 79 74 S7 29.98S HX 102 CLINTON SUNNY 91 76 60 SW7 30.02S HX 103 ELIZABETHTOWN NOT AVBL GOLDSBORO MOSUNNY 93 79 64 SW8 29.99S HX 110 GREENVILLE SUNNY 91 75 59 SW6 30.00F HX 102 HAVELOCK MOSUNNY 92 74 55 SW8 30.02F HX 101 KENANSVILLE MOSUNNY 93 73 52 SW8 30.01F HX 102 KINSTON SUNNY 95 73 49 SW10 30.00F HX 105 NEW BERN SUNNY 93 76 57 W8 30.01F HX 105 RICHLANDS SUNNY 93 76 57 SW8 30.02 HX 105 ROCKY MOUNT SUNNY 93 75 55 SW7 29.99F HX 104 WASHINGTON SUNNY 92 76 58 S7 29.99F HX 104 WHITEVILLE SUNNY 90 73 57 SW8 30.03S $$ AMZ130-135-150-152-154-156-158-170-250-252-270-ANZ085-086-088-633-658-670-211800- MARINE OBSERVATIONS STATION/POSITION TIME TEMP WIND PRES WAVE SWELL AIR SEA DIR/SP/G HT/PER HT/PER (UTC) (F) (DEG/KT/KT) (MB) (FT/S) (FT/S) CHESAPEAKE LIGHT NOT AVBL 64 E VA BEACH 1650 80 80 210/ 12/ 14 1015.8 2/ 8 2/ 8 DUCK 1648 87 58 210/ 7/ 9 1014.8 2 E DUCK 1630 66 N/A 2/13 2/13 OREGON INLET 1636 83 83 180/ 14/ 17 1015.7 13E OREGON INLT 1648 80 N/A 2/ 7 2/ 7 HATTERAS CG 1648 83 79 210/ 8/ 11 1016.4 DIAMOND BUOY 1650 83 85 210/ 14/ 17 1016.4 3/ 7 2/ 7 CAPE LOOKOUT 1700 84 200/ 13/ 16 1016.5 BEAUFORT LAB 1648 83 81 210/ 11/ 13 1016.1 30 SE NEW RVR IN 1608 81 82 240/ 10/ 14 1017.7 30 SE NEW RVR IN 1643 82 N/A 3/ 8 27 SE WRIGHTSVLE 1608 81 81 230/ 12/ 16 1017.5 5 SE WRIGHTSVLE 1608 82 82 200/ 8/ 14 1017.3 225 S CAPE HAT 1650 82 84 230/ 10/ 12 1019.2 3/ 8 3/ 8 41 SE CHARLESTON 1650 83 84 210/ 8/ 10 1018.4 3/ 8 2/ 8 $$

USA.gov is the U.S. government's official web portal to all federal, state and local government web resources and services.